Temperature
12 12 12 12 11 11 11 11 11 11 10 11 10 10 10 10 10 11 11 11 11 11 11 11 11 11 11 11 11 11 11 11 11 11 11 11 11 11
12 12 12 12 11 11 11 11 11 11 10 10 10 10 10 10 10 10 10 10 10 10 10 10 10 11 10 10 10 10 10 10 10 10 10 11 11 11
12 12 11 11 11 11 11 11 11 10 10 10 10 10 10 10 10 10 10 10 10 10 10 10 10 10 10 10 10 10 10 10 10 10 10 10 10 10
11 11 11 11 11 11 10 10 10 10 10 10 10 10 10 10 10 10 10 10 10 10 10 10 10 10 10 10 10 10 10 10 10 10 10 10 10 10
11 11 11 11 10 10 10 10 10 10 10 10 10 10 10 9 9 9 9 9 9 9 9 9 9 9 9 9 9 9 9 9 9 9 9 9 9 10
11 11 11 10 10 10 10 10 10 10 10 10 9 9 9 9 9 9 9 9 9 9 9 9 9 9 9 9 9 9 9 9 9 9 9 9 9 9
10 10 10 10 10 10 10 10 10 10 9 9 9 9 9 9 9 9 8 8 9 9 9 8 8 9 9 9 9 9 9 8 9 9 9 9 8 9
10 10 10 10 10 10 10 10 10 9 9 9 9 9 9 9 8 8 8 8 8 8 8 8 8 8 8 8 8 8 8 8 8 8 8 8 8 8
10 10 10 10 10 10 10 9 9 9 9 9 9 9 8 8 8 8 8 8 8 8 8 8 8 8 8 8 8 8 8 8 8 8 8 8 8 8
9 9 9 9 9 9 9 9 9 9 9 9 8 8 8 8 8 8 8 8 8 7 7 7 8 8 8 8 8 8 8 8 8 8 7 7 7 7
9 9 9 9 9 9 9 9 9 9 8 8 8 8 8 8 8 7 7 7 7 7 7 7 7 7 8 8 8 7 7 8 7 7 7 7 7 7
9 9 9 8 8 8 8 8 8 8 8 8 8 8 8 8 7 7 7 7 7 6 7 7 7 7 7 7 7 7 7 7 7 7 7 7 7 7
9 8 8 8 8 8 8 8 8 8 8 8 8 8 7 7 7 7 7 6 6 6 6 6 6 6 6 6 7 7 7 7 7 7 7 7 7 7
8 8 8 8 8 8 8 8 7 7 7 7 7 7 7 7 7 7 7 6 6 6 6 6 6 6 6 6 6 6 6 6 6 6 6 6 6 6
8 8 7 7 7 7 7 7 7 7 7 7 7 7 7 7 7 6 6 6 6 6 6 6 6 6 6 6 6 6 6 6 6 6 6 6 6 6
7 7 7 7 7 7 7 7 7 7 7 6 6 6 6 6 6 6 6 6 6 6 6 5 5 5 5 6 5 6 6 5 6 6 6 6 6 6
7 7 7 7 7 7 7 6 6 6 6 6 6 6 6 6 6 6 6 6 5 5 6 6 5 5 5 5 5 5 5 5 5 5 5 6 6 6
6 6 6 6 6 6 6 6 6 6 6 6 6 6 5 5 5 5 5 5 5 5 5 5 5 5 5 5 5 5 5 5 5 5 5 5 5 6
6 6 6 6 6 6 6 6 6 6 6 5 5 5 5 5 5 5 5 5 5 5 5 5 5 4 4 4 5 5 5 5 5 5 5 5 5 5
6 6 6 6 5 5 5 5 5 5 5 5 5 5 5 5 5 5 4 4 5 5 5 5 4 4 4 4 4 5 5 5 5 5 5 5 5 5
6 5 5 5 5 5 5 5 5 5 5 5 5 5 5 4 4 4 4 4 4 4 4 4 4 4 4 4 4 4 5 5 5 5 5 5 5 5
5 5 5 5 5 5 5 5 4 4 4 4 4 4 4 4 4 4 4 4 4 4 4 4 4 4 4 4 4 4 5 5 5 4 4 4 4 4
5 5 5 5 5 5 4 4 4 4 4 4 4 4 4 4 4 4 4 4 4 4 4 4 4 4 4 3 3 4 4 4 4 4 4 4 4 4
Wind_Speed
2 2 1 1 1 1 2 2 3 1 2 2 2 2 3 3 4 4 4 5 6 6 5 5 5 5 5 6 5 4 4 5 5 5 5 5 5 4
2 2 1 1 1 1 2 1 2 3 2 2 2 2 2 2 4 4 4 5 6 6 5 5 5 4 4 4 4 4 4 4 4 4 4 5 5 5
2 2 2 1 1 1 1 1 1 2 2 2 1 1 1 1 3 4 4 4 5 6 6 6 5 5 5 4 4 4 4 4 4 4 4 5 5 5
3 2 2 2 2 2 2 2 2 2 3 2 1 1 1 1 2 3 4 4 4 5 6 5 5 5 4 4 4 3 3 4 4 4 4 4 5 5
3 4 3 3 3 2 2 2 2 2 2 2 1 0 1 1 2 2 3 4 5 5 5 5 5 5 4 4 4 3 3 3 3 3 3 4 4 5
3 3 4 5 5 4 3 3 3 2 2 2 1 0 1 1 1 1 2 3 3 4 5 5 5 5 5 5 4 4 3 3 3 4 3 4 4 4
1 2 3 4 4 4 3 4 4 3 2 2 1 0 0 0 1 1 1 2 3 2 3 3 4 4 5 5 5 4 4 4 4 4 3 3 3 4
2 2 2 2 3 3 4 5 5 5 4 3 2 2 2 2 1 1 1 1 2 2 1 3 2 2 4 5 5 4 4 4 4 4 4 4 4 4
1 1 1 1 1 1 2 3 3 4 5 4 3 4 3 4 3 2 2 2 2 2 1 2 2 3 4 5 5 5 4 4 4 4 4 4 4 5
1 1 1 1 1 2 2 2 1 2 3 3 4 4 3 3 4 3 3 1 1 1 1 2 2 3 4 4 5 4 4 4 4 4 4 5 5 5
0 0 1 2 2 2 3 2 1 1 2 2 2 2 1 2 2 2 2 1 2 2 1 1 2 3 3 3 4 5 5 5 5 5 5 5 5 5
1 1 1 1 1 2 3 3 2 2 1 1 1 1 1 1 3 3 3 2 1 2 2 2 1 1 2 2 3 4 4 5 5 6 6 6 6 3
1 1 1 1 1 2 2 3 3 2 1 1 0 0 1 0 1 1 2 3 3 3 3 2 2 1 2 3 3 3 3 3 4 5 6 7 6 4
2 2 2 2 1 1 2 1 1 0 1 1 0 1 1 2 2 2 3 3 3 3 4 4 2 2 2 3 4 3 3 3 3 3 4 6 6 6
2 3 2 2 1 1 1 1 1 1 1 1 1 2 2 2 1 1 1 1 2 3 3 4 3 3 3 4 3 3 3 3 3 3 3 4 4 3
1 2 2 1 1 1 0 0 1 1 2 2 2 2 1 1 1 1 1 1 1 2 3 4 4 3 3 4 4 4 4 3 3 3 4 4 5 4
1 0 0 0 0 0 1 1 1 1 1 2 2 2 2 1 2 1 1 1 1 2 3 3 2 3 3 4 4 5 4 4 4 3 3 4 5 4
3 2 2 2 2 2 2 2 2 2 2 2 2 2 2 2 2 2 2 2 3 4 4 3 2 2 2 3 5 5 4 4 4 4 3 3 5 4
3 2 2 3 3 3 3 3 3 3 3 2 3 3 3 3 3 3 3 3 4 4 4 3 2 2 3 5 4 5 5 4 3 4 4 4 5 5
2 3 3 3 3 3 3 3 3 3 2 3 3 3 3 3 3 4 4 4 4 4 4 3 3 4 5 5 4 4 6 5 4 5 4 4 4 5
2 3 3 3 3 3 3 3 3 3 3 3 3 3 3 3 3 4 4 5 4 4 5 5 5 5 3 1 3 4 4 6 6 4 3 3 3 3
2 3 3 3 3 3 3 3 3 3 3 3 3 3 3 3 4 4 4 4 4 5 5 4 3 2 2 4 5 5 5 4 5 7 6 5 3 3
3 3 3 3 3 3 3 3 4 3 3 3 3 3 3 3 3 4 4 4 4 4 4 3 2 2 3 4 5 5 5 4 3 3 4 6 7 8
Wind_Direction
173 159 156 174 161 161 148 156 155 180 279 272 282 305 331 352 359 4 355 360 4 3 1 359 358 0 7 17 22 24 23 20 16 14 13 15 15 8
164 150 153 166 157 147 155 160 157 166 209 250 245 269 314 356 360 360 346 349 352 356 1 0 357 355 359 8 14 18 19 13 12 14 11 14 12 6
172 167 181 161 153 153 144 149 150 147 182 267 270 304 335 347 353 358 355 355 349 355 358 359 358 357 360 4 8 13 12 14 14 11 10 6 4 359
199 179 192 174 169 176 170 179 180 174 170 211 266 303 320 317 338 349 349 350 345 345 351 353 355 352 353 360 4 12 19 20 13 12 8 2 357 355
198 196 201 183 195 196 189 189 189 173 155 165 211 265 313 332 354 344 347 347 342 341 346 344 344 345 347 351 352 347 346 350 346 348 350 350 348 348
205 206 203 199 203 195 193 191 170 154 143 147 177 220 264 313 3 336 336 345 336 348 351 344 341 341 337 334 335 334 323 317 316 321 325 332 334 337
226 228 221 213 208 196 194 186 171 166 160 162 186 190 251 254 249 246 295 324 321 334 336 338 341 339 329 324 327 330 330 324 314 308 306 310 319 328
232 249 247 231 225 215 209 196 179 175 184 185 202 214 232 225 214 227 228 317 304 321 331 315 343 321 316 312 317 320 318 318 318 314 306 299 300 304
226 236 252 263 225 192 198 199 209 211 196 192 197 219 218 215 192 206 220 227 244 268 300 294 305 299 311 316 316 318 316 316 317 318 315 312 307 303
214 224 223 253 229 186 166 148 195 229 228 206 203 218 219 199 192 198 202 191 294 290 223 256 293 299 315 315 314 315 312 309 308 309 310 306 301 298
271 280 216 233 251 168 143 161 214 281 274 238 230 236 235 195 159 118 114 103 298 279 227 220 270 301 305 301 308 308 301 300 301 301 301 305 302 298
313 307 296 260 261 171 162 177 221 254 271 324 335 336 346 186 182 177 178 185 245 262 229 210 244 298 304 294 315 315 307 300 297 294 292 294 296 295
224 270 286 312 280 198 180 193 227 226 185 195 245 343 42 84 224 241 207 197 214 246 227 198 228 244 251 290 304 303 301 308 300 292 287 286 283 270
215 232 251 280 286 241 203 224 244 186 145 162 200 274 270 262 258 252 253 248 240 247 230 199 213 222 233 270 285 297 301 298 289 291 290 291 283 269
217 222 234 252 287 286 264 224 123 129 154 189 233 248 251 256 256 277 290 308 314 296 251 230 224 231 228 242 258 278 293 292 278 280 292 290 286 283
228 241 248 254 244 261 288 265 207 192 194 217 240 248 250 251 247 241 255 275 298 303 292 263 242 226 244 253 250 266 267 269 281 280 285 288 285 270
170 130 132 346 322 292 289 274 257 227 232 235 238 254 252 251 258 248 236 238 245 275 294 309 297 265 251 244 255 259 261 270 272 273 275 284 281 272
154 171 209 224 234 242 247 261 253 247 244 241 239 240 246 250 255 254 238 234 250 259 266 278 301 330 318 282 236 246 257 267 275 268 260 268 284 283
162 195 218 231 237 236 237 238 244 247 241 237 243 244 243 246 250 252 248 249 254 259 264 261 252 245 273 287 275 232 244 266 275 275 262 257 271 282
182 204 224 235 236 237 238 240 243 245 241 242 243 246 244 243 248 253 248 244 252 263 272 265 251 243 243 258 271 278 244 240 251 264 272 272 274 289
217 226 233 238 241 243 243 239 235 237 238 237 243 246 244 242 250 254 255 258 256 254 260 263 261 263 272 275 280 285 279 251 244 249 252 263 280 292
230 235 239 241 242 244 243 238 234 236 235 236 243 245 244 240 247 253 254 256 256 256 262 270 272 254 245 251 267 280 292 303 286 274 259 242 234 244
234 240 244 241 241 242 237 234 231 236 237 237 240 245 248 248 251 252 256 259 263 265 267 270 269 258 255 252 264 275 282 290 297 291 285 280 261 260
Height
1526 1526 1526 1526 1526 1526 1526 1526 1527 1525 1525 1525 1526 1526 1525 1525 1525 1525 1525 1524 1524 1523 1522 1521 1520 1519 1516 1514 1513 1514 1515 1516 1516 1516 1516 1516 1515 1515
1524 1524 1524 1524 1524 1525 1525 1525 1525 1525 1524 1524 1524 1524 1524 1524 1524 1524 1524 1523 1523 1522 1521 1520 1519 1518 1517 1516 1515 1515 1516 1516 1516 1515 1515 1515 1514 1514
1522 1522 1522 1523 1523 1523 1523 1523 1523 1523 1523 1523 1523 1523 1523 1522 1522 1522 1522 1521 1521 1520 1519 1519 1518 1517 1517 1516 1515 1515 1515 1515 1515 1514 1514 1514 1513 1513
1519 1520 1520 1521 1521 1521 1521 1521 1521 1521 1521 1520 1521 1521 1521 1521 1520 1520 1520 1519 1519 1518 1517 1517 1516 1516 1515 1515 1514 1514 1514 1514 1514 1513 1513 1512 1512 1511
1517 1517 1518 1518 1518 1518 1518 1518 1519 1519 1519 1519 1518 1518 1519 1519 1518 1518 1518 1517 1517 1516 1515 1515 1515 1514 1514 1513 1513 1513 1512 1512 1512 1512 1511 1511 1510 1510
1514 1515 1515 1515 1516 1516 1516 1516 1516 1517 1517 1517 1516 1516 1517 1517 1517 1516 1515 1515 1515 1514 1514 1513 1513 1512 1512 1512 1511 1511 1511 1510 1510 1510 1509 1509 1508 1507
1512 1512 1512 1513 1513 1513 1513 1513 1514 1514 1514 1514 1514 1514 1514 1514 1514 1514 1513 1513 1513 1512 1512 1512 1511 1510 1510 1510 1509 1509 1508 1508 1507 1507 1507 1506 1506 1505
1509 1509 1510 1510 1510 1510 1511 1511 1512 1512 1512 1512 1512 1512 1512 1512 1512 1512 1511 1511 1510 1511 1510 1510 1509 1508 1508 1508 1507 1507 1506 1506 1505 1505 1504 1504 1503 1503
1507 1507 1507 1507 1507 1508 1508 1508 1509 1509 1510 1510 1510 1510 1510 1510 1510 1509 1509 1509 1508 1509 1508 1507 1507 1506 1506 1505 1505 1504 1504 1503 1503 1502 1502 1501 1501 1500
1505 1505 1505 1505 1505 1505 1505 1505 1506 1506 1507 1507 1507 1508 1508 1508 1508 1508 1507 1507 1506 1506 1506 1505 1504 1504 1503 1503 1502 1502 1501 1501 1500 1499 1499 1498 1497 1497
1502 1502 1502 1502 1503 1503 1502 1503 1503 1504 1504 1504 1505 1505 1505 1505 1505 1505 1504 1504 1503 1503 1503 1502 1501 1501 1500 1500 1500 1499 1499 1498 1497 1496 1496 1495 1494 1494
1500 1500 1500 1500 1500 1500 1500 1500 1500 1501 1501 1501 1502 1502 1502 1502 1502 1502 1502 1501 1500 1500 1500 1500 1499 1499 1497 1497 1497 1497 1496 1495 1494 1494 1493 1492 1491 1490
1497 1497 1497 1497 1497 1498 1498 1498 1498 1498 1498 1498 1498 1499 1499 1499 1499 1499 1499 1498 1498 1497 1498 1497 1496 1496 1496 1494 1494 1494 1493 1492 1491 1490 1490 1489 1488 1487
1494 1494 1494 1494 1495 1495 1495 1495 1495 1495 1495 1495 1495 1495 1495 1495 1495 1495 1495 1495 1495 1495 1495 1494 1493 1493 1492 1491 1490 1490 1490 1489 1488 1487 1486 1485 1484 1484
1491 1491 1491 1492 1492 1492 1492 1492 1492 1492 1492 1492 1491 1491 1492 1492 1492 1492 1492 1492 1491 1491 1491 1491 1490 1490 1489 1488 1487 1486 1485 1485 1484 1483 1482 1481 1480 1480
1488 1488 1488 1488 1488 1488 1489 1489 1489 1489 1489 1489 1488 1488 1488 1488 1488 1488 1488 1487 1487 1487 1487 1487 1486 1486 1485 1484 1483 1482 1482 1481 1480 1479 1478 1477 1477 1476
1484 1484 1484 1484 1484 1484 1485 1485 1485 1485 1485 1485 1485 1485 1484 1484 1484 1484 1484 1483 1483 1482 1482 1483 1482 1482 1481 1480 1479 1478 1477 1477 1476 1475 1474 1473 1472 1471
1480 1480 1480 1480 1480 1480 1480 1481 1481 1481 1481 1481 1481 1481 1481 1481 1480 1480 1480 1480 1479 1478 1478 1478 1477 1477 1476 1475 1475 1474 1473 1472 1472 1471 1470 1468 1467 1467
1476 1476 1476 1476 1476 1477 1477 1477 1477 1477 1477 1477 1477 1477 1477 1477 1476 1476 1476 1475 1475 1474 1474 1474 1473 1472 1471 1470 1469 1470 1469 1468 1467 1467 1466 1464 1463 1463
1471 1472 1472 1472 1473 1473 1473 1473 1473 1473 1473 1473 1473 1473 1473 1472 1472 1472 1471 1471 1470 1470 1470 1469 1469 1468 1467 1467 1465 1464 1465 1464 1463 1462 1461 1460 1459 1459
1468 1468 1468 1469 1469 1469 1469 1468 1468 1468 1468 1468 1468 1468 1468 1468 1468 1467 1467 1467 1466 1465 1465 1464 1464 1465 1464 1463 1461 1459 1460 1460 1459 1458 1457 1456 1454 1454
1464 1464 1464 1464 1464 1464 1464 1464 1464 1464 1464 1464 1464 1464 1464 1464 1463 1463 1463 1462 1461 1461 1460 1460 1460 1459 1458 1458 1456 1455 1455 1455 1454 1454 1453 1452 1451 1449
1460 1460 1460 1460 1460 1460 1459 1459 1459 1459 1459 1459 1459 1459 1459 1459 1459 1459 1458 1458 1457 1456 1456 1455 1455 1454 1453 1453 1452 1451 1450 1450 1449 1449 1448 1448 1448 1447